Location: *
(37.9500°N, 27.3666°E)
Time: 13:57:56
(UTC+00:00)

IRS-1C Rocket - Pass Details

Date: 24 October 2021
Orbit: 801 x 805 km, 98.9° (Epoch: 02 December)

Event Time Altitude Azimuth Distance (km) Brightness Sun altitude
Exits shadow 17:04:19 29° 141° (SE) 1,445 5.1 -21.0°
Maximum altitude 17:06:56 59° 73° (ENE) 920 4.0 -21.5°
Drops below altitude 10° 17:12:06 10° 354° (N) 2,388 6.6 -22.6°
Sets 17:14:28 0° 351° (N) 3,323 7.4 -23.0°
